• In Deutschland
  • Länderverzeichnis
  • Für 7 Tage
  • Wassertemperatur
  • Satellitenkarten
  • Wetterkarte
  • Widgets
  • user-avatar
    Anmelden

    Stündliche Wetter Schwerin

    Heute, 17 Oktober, Dienstag

    Zeit Temperatur Niederschläge Wind Luftdruck Luftfeuchtigkeit
    00:00 +16°C° 0 mm 3 m/S 761 mmHg 82%
    01:00 +16°C° 0 mm 3 m/S 761 mmHg 80%
    02:00 +14°C° 0 mm 3 m/S 761 mmHg 81%
    03:00 +14°C° 0 mm 3 m/S 761 mmHg 81%
    04:00 +14°C° 0 mm 3 m/S 761 mmHg 81%
    05:00 +13°C° 0 mm 3 m/S 761 mmHg 83%
    06:00 +13°C° 0 mm 3 m/S 761 mmHg 84%
    07:00 +13°C° 0 mm 3 m/S 761 mmHg 86%
    08:00 +14°C° 0 mm 3 m/S 761 mmHg 82%
    09:00 +15°C° 0 mm 4 m/S 761 mmHg 78%
    10:00 +18°C° 0 mm 4 m/S 761 mmHg 75%
    11:00 +18°C° 0 mm 4 m/S 761 mmHg 72%
    12:00 +19°C° 0 mm 4 m/S 761 mmHg 69%
    13:00 +20°C° 0 mm 5 m/S 761 mmHg 66%
    14:00 +20°C° 0 mm 4 m/S 760 mmHg 68%
    15:00 +19°C° 0 mm 4 m/S 760 mmHg 70%
    16:00 +19°C° 0 mm 3 m/S 760 mmHg 72%
    17:00 +18°C° 0 mm 3 m/S 759 mmHg 76%
    18:00 +16°C° 0 mm 3 m/S 759 mmHg 81%
    19:00 +14°C° 0 mm 3 m/S 759 mmHg 85%
    20:00 +13°C° 0 mm 3 m/S 759 mmHg 87%
    21:00 +13°C° 0 mm 3 m/S 759 mmHg 88%
    22:00 +13°C° 0 mm 3 m/S 759 mmHg 90%
    23:00 +12°C° 0 mm 3 m/S 759 mmHg 90%

    Morgen, 18 Oktober, Mittwoch

    Zeit Temperatur Niederschläge Wind Luftdruck Luftfeuchtigkeit
    00:00 +12°C° 0 mm 3 m/S 759 mmHg 91%
    01:00 +11°C° 0 mm 3 m/S 759 mmHg 91%
    02:00 +11°C° 0 mm 3 m/S 758 mmHg 92%
    03:00 +12°C° 0 mm 2 m/S 758 mmHg 92%
    04:00 +10°C° 0 mm 2 m/S 758 mmHg 92%
    05:00 +10°C° 0 mm 2 m/S 758 mmHg 92%
    06:00 +10°C° 0 mm 2 m/S 758 mmHg 91%
    07:00 +10°C° 0 mm 2 m/S 758 mmHg 91%
    08:00 +12°C° 0 mm 2 m/S 758 mmHg 84%
    09:00 +14°C° 0 mm 2 m/S 758 mmHg 78%
    10:00 +15°C° 0 mm 2 m/S 758 mmHg 71%
    11:00 +16°C° 0 mm 2 m/S 758 mmHg 67%
    12:00 +18°C° 0 mm 1 m/S 758 mmHg 63%
    13:00 +19°C° 0 mm 1 m/S 757 mmHg 59%
    14:00 +19°C° 0 mm 1 m/S 757 mmHg 63%
    15:00 +19°C° 0 mm 1 m/S 757 mmHg 66%
    16:00 +16°C° 0 mm 0 m/S 757 mmHg 69%
    17:00 +16°C° 0 mm 1 m/S 757 mmHg 72%
    18:00 +15°C° 0 mm 1 m/S 757 mmHg 76%
    19:00 +14°C° 0 mm 2 m/S 757 mmHg 79%
    20:00 +14°C° 0 mm 2 m/S 757 mmHg 79%
    21:00 +14°C° 0 mm 2 m/S 757 mmHg 79%
    22:00 +14°C° 0 mm 2 m/S 757 mmHg 78%
    23:00 +14°C° 0 mm 2 m/S 757 mmHg 81%

    übermorgen, 19 Oktober, Donnerstag

    Zeit Temperatur Niederschläge Wind Luftdruck Luftfeuchtigkeit
    00:00 +14°C° 0 mm 2 m/S 757 mmHg 83%
    01:00 +13°C° 0 mm 2 m/S 756 mmHg 86%
    02:00 +13°C° 0 mm 2 m/S 756 mmHg 88%
    03:00 +13°C° 0 mm 2 m/S 756 mmHg 90%
    04:00 +12°C° 0 mm 2 m/S 756 mmHg 92%
    05:00 +12°C° 0 mm 2 m/S 756 mmHg 93%
    06:00 +12°C° 0 mm 2 m/S 756 mmHg 94%
    07:00 +12°C° 0 mm 2 m/S 755 mmHg 95%
    08:00 +13°C° 0 mm 2 m/S 756 mmHg 90%
    09:00 +14°C° 0 mm 2 m/S 756 mmHg 86%
    10:00 +15°C° 0 mm 2 m/S 756 mmHg 81%
    11:00 +16°C° 0 mm 2 m/S 755 mmHg 77%
    12:00 +17°C° 0 mm 2 m/S 755 mmHg 72%
    13:00 +18°C° 0 mm 2 m/S 755 mmHg 68%
    14:00 +18°C° 0 mm 2 m/S 755 mmHg 69%
    15:00 +19°C° 0 mm 1 m/S 755 mmHg 71%
    16:00 +19°C° 0 mm 1 m/S 755 mmHg 73%
    17:00 +18°C° 0 mm 1 m/S 755 mmHg 77%
    18:00 +16°C° 0 mm 2 m/S 755 mmHg 80%
    19:00 +14°C° 0 mm 2 m/S 755 mmHg 84%
    20:00 +14°C° 0 mm 2 m/S 755 mmHg 85%
    21:00 +14°C° 0 mm 2 m/S 755 mmHg 86%
    22:00 +14°C° 0 mm 2 m/S 754 mmHg 87%
    23:00 +12°C° 0 mm 3 m/S 754 mmHg 87%

    20 Oktober, Freitag

    Zeit Temperatur Niederschläge Wind Luftdruck Luftfeuchtigkeit
    00:00 +12°C° 0 mm 3 m/S 754 mmHg 87%
    01:00 +12°C° 0 mm 3 m/S 754 mmHg 87%
    02:00 +12°C° 0 mm 3 m/S 754 mmHg 86%
    03:00 +12°C° 0 mm 3 m/S 753 mmHg 84%
    04:00 +12°C° 0 mm 3 m/S 753 mmHg 83%
    05:00 +12°C° 0 mm 4 m/S 753 mmHg 81%
    06:00 +13°C° 0 mm 4 m/S 753 mmHg 79%
    07:00 +13°C° 0 mm 4 m/S 752 mmHg 78%
    08:00 +13°C° 1,1 mm 5 m/S 752 mmHg 81%
    09:00 +13°C° 1,1 mm 5 m/S 753 mmHg 83%
    10:00 +14°C° 1,1 mm 6 m/S 753 mmHg 86%
    11:00 +15°C° 0,6 mm 6 m/S 753 mmHg 82%
    12:00 +15°C° 0,6 mm 7 m/S 753 mmHg 78%
    13:00 +16°C° 0,6 mm 7 m/S 753 mmHg 75%
    14:00 +16°C° 0,1 mm 7 m/S 753 mmHg 73%
    15:00 +15°C° 0,1 mm 6 m/S 753 mmHg 72%
    16:00 +15°C° 0,1 mm 5 m/S 753 mmHg 71%
    17:00 +14°C° 0 mm 5 m/S 754 mmHg 73%
    18:00 +13°C° 0 mm 5 m/S 754 mmHg 75%
    19:00 +12°C° 0 mm 5 m/S 754 mmHg 77%
    20:00 +10°C° 0 mm 5 m/S 755 mmHg 78%
    21:00 +10°C° 0 mm 5 m/S 755 mmHg 79%
    22:00 +10°C° 0 mm 4 m/S 755 mmHg 80%
    23:00 +10°C° 0 mm 4 m/S 755 mmHg 82%

    21 Oktober, Samstag

    Zeit Temperatur Niederschläge Wind Luftdruck Luftfeuchtigkeit
    00:00 +8°C° 0 mm 4 m/S 755 mmHg 85%
    01:00 +9°C° 0 mm 3 m/S 754 mmHg 87%
    02:00 +9°C° 0 mm 3 m/S 754 mmHg 87%
    03:00 +9°C° 0 mm 3 m/S 754 mmHg 88%
    04:00 +8°C° 0 mm 4 m/S 753 mmHg 88%
    05:00 +10°C° 0,1 mm 4 m/S 753 mmHg 88%
    06:00 +10°C° 0,1 mm 4 m/S 752 mmHg 88%
    07:00 +11°C° 0,1 mm 4 m/S 752 mmHg 88%
    08:00 +12°C° 0,7 mm 4 m/S 751 mmHg 89%
    09:00 +12°C° 0,7 mm 5 m/S 751 mmHg 90%
    10:00 +13°C° 0,7 mm 5 m/S 751 mmHg 91%
    11:00 +13°C° 1,4 mm 5 m/S 750 mmHg 91%
    12:00 +14°C° 1,4 mm 5 m/S 750 mmHg 90%
    13:00 +14°C° 1,4 mm 6 m/S 750 mmHg 90%
    14:00 +15°C° 0,2 mm 5 m/S 750 mmHg 86%
    15:00 +15°C° 0,2 mm 5 m/S 750 mmHg 83%
    16:00 +15°C° 0,2 mm 5 m/S 750 mmHg 79%
    17:00 +14°C° 0,2 mm 5 m/S 750 mmHg 79%
    18:00 +13°C° 0,2 mm 5 m/S 750 mmHg 79%
    19:00 +12°C° 0,2 mm 5 m/S 750 mmHg 80%
    20:00 +12°C° 0 mm 5 m/S 750 mmHg 79%
    21:00 +10°C° 0 mm 5 m/S 750 mmHg 78%
    22:00 +10°C° 0 mm 6 m/S 750 mmHg 78%
    23:00 +9°C° 0 mm 6 m/S 750 mmHg 77%

    22 Oktober, Sonntag

    Zeit Temperatur Niederschläge Wind Luftdruck Luftfeuchtigkeit
    00:00 +9°C° 0 mm 6 m/S 750 mmHg 76%
    01:00 +8°C° 0 mm 7 m/S 750 mmHg 75%
    02:00 +8°C° 0 mm 7 m/S 750 mmHg 74%
    03:00 +8°C° 0 mm 7 m/S 750 mmHg 74%
    04:00 +6°C° 0 mm 7 m/S 750 mmHg 73%
    05:00 +6°C° 0 mm 7 m/S 750 mmHg 73%
    06:00 +6°C° 0 mm 7 m/S 750 mmHg 74%
    07:00 +6°C° 0 mm 7 m/S 750 mmHg 74%
    08:00 +8°C° 0 mm 7 m/S 750 mmHg 71%
    09:00 +9°C° 0 mm 8 m/S 750 mmHg 68%
    10:00 +8°C° 0 mm 9 m/S 750 mmHg 65%
    11:00 +10°C° 0,1 mm 8 m/S 750 mmHg 63%
    12:00 +10°C° 0,1 mm 8 m/S 750 mmHg 62%
    13:00 +10°C° 0,1 mm 8 m/S 750 mmHg 61%
    14:00 +10°C° 0 mm 8 m/S 750 mmHg 62%
    15:00 +10°C° 0 mm 7 m/S 749 mmHg 63%
    16:00 +9°C° 0 mm 7 m/S 749 mmHg 65%
    17:00 +9°C° 0,5 mm 7 m/S 749 mmHg 70%
    18:00 +7°C° 0,5 mm 8 m/S 748 mmHg 74%
    19:00 +6°C° 0,5 mm 8 m/S 747 mmHg 79%
    20:00 +7°C° 1,1 mm 8 m/S 747 mmHg 82%
    21:00 +7°C° 1,1 mm 8 m/S 747 mmHg 85%
    22:00 +9°C° 1,1 mm 8 m/S 746 mmHg 88%
    23:00 +9°C° 0,3 mm 8 m/S 746 mmHg 88%
    Mehr zeigen